Simultaneous Nadir Overpasses (SNOs) Predictions

Prediction of SNOs between NOAA-19 and METOP-C Satellite Orbit:

Table of predicted SNOs for the next 14.0 days since TLE Epoch: 1/5/2025
Index Date (NOAA-19) Time (NOAA-19) Lat,Lon (NOAA-19) SZA (NOAA-19 ) Date (METOP-C) Time (METOP-C) Lat,Lon (METOP-C) SZA (METOP-C ) Distance(km) Time Diff (sec)
1 01/16/2025 00:16:35 78.65, -91.95 110.45 01/16/2025 00:17:50 78.73, -91.47 110.61 13.86 75
2 01/16/2025 01:06:14 -75.26, 90.64 66.04 01/16/2025 01:07:09 -75.25, 90.70 65.96 2.18 55
3 01/16/2025 01:56:57 74.61,-100.16 114.55 01/16/2025 01:57:38 74.63,-100.22 114.58 2.85 41
4 01/16/2025 02:47:52 -74.37, 67.75 65.25 01/16/2025 02:48:12 -74.36, 67.82 65.21 2.49 20
5 01/16/2025 03:38:31 73.50,-122.76 115.51 01/16/2025 03:38:37 73.52,-122.82 115.50 3.07 6
6
